[[{"header":{"parameterUnit":"m.s-1","parameterCategory":1,"la1":30.2991,"la2":30.254,"lo1":-89.0895,"lo2":-89.0444,"dy":0.0017,"dx":0.0017,"nx":28,"ny":28,"refTime":"2025-08-03T21:00:00:Z","depth":0,"parameterNumber":2,"parameterNumberName":"U-component_of_WINDS"},"data":[0,0,0,0,0,0,0,0,0,0,0,0,0,0,0,0,0,0,0,0,0,0,0,0,0,0,0,0,0,0,0,0,0,0,0,0,0,0,0,0,0,0,0,0,0,0,0,0,0,0,0,0,0,0,0,0,0,0,-2.2709,-2.271,0,-2.2811,-2.2812,-2.2813,-2.2837,-2.2836,-2.2835,-2.2835,-2.2937,-2.294,-2.2943,0,0,0,0,0,0,0,0,0,0,0,0,0,-2.2532,-2.2535,-2.2709,-2.271,-2.2711,-2.2811,-2.2812,-2.2813,-2.2837,-2.2836,-2.2835,-2.2834,-2.2936,-2.294,-2.2944,0,0,0,0,0,0,0,0,0,0,0,0,0,-2.2619,-2.2536,-2.2708,-2.2735,-2.2738,-2.281,-2.2812,-2.2814,-2.2837,-2.2836,-2.2835,-2.2834,-2.2934,-2.2939,-2.2944,-2.2996,0,0,-2.296,-2.2962,0,0,0,0,0,0,0,0,-2.2614,-2.2625,-2.273,-2.2733,-2.2737,-2.281,-2.2787,-2.2875,-2.2837,-2.2799,-2.2835,-2.2833,-2.2895,-2.2903,-2.2925,-2.3001,-2.3005,-2.296,-2.2963,-2.2965,-2.2967,0,0,0,0,0,0,0,-2.2608,-2.2621,-2.2749,-2.2731,-2.2736,-2.2741,-2.2752,-2.2804,-2.2852,-2.2803,-2.2805,-2.2817,-2.2897,-2.292,-2.2927,-2.3007,-2.296,-2.2964,-2.2967,-2.2969,-2.3132,-2.3133,0,0,0,0,0,0,-2.2597,-2.2616,-2.2746,-2.2752,-2.2672,-2.2745,-2.2758,-2.2788,-2.2851,-2.286,-2.2817,-2.2817,-2.2912,-2.2921,-2.2931,-2.2996,-2.2965,-2.297,-2.2973,-2.313,-2.3132,-2.3133,0,0,0,0,0,0,-2.2593,-2.2609,-2.2742,-2.2684,-2.2702,-2.2749,-2.2783,-2.279,-2.2813,-2.2863,-2.2871,-2.2832,-2.2911,-2.2924,-2.298,-2.3,-2.2972,-2.2977,-2.3129,-2.3131,-2.3133,-2.3127,0,0,0,0,0,0,-2.2588,-2.2607,-2.2628,-2.2685,-2.2705,-2.279,-2.2784,-2.2793,-2.2822,-2.2823,-2.2879,-2.2887,-2.2911,-2.2973,-2.2985,-2.3007,-2.2981,-2.3127,-2.313,-2.3132,-2.3126,-2.3129,-2.3131,0,0,0,0,0,-2.2582,-2.2622,-2.2629,-2.2644,-2.2732,-2.2791,-2.2802,-2.283,-2.2824,-2.2844,-2.2876,-2.2885,-2.2996,-2.2978,-2.2993,-2.3016,-2.3126,-2.3129,-2.3132,-2.3125,-2.3128,-2.3131,0,0,0,0,0,0,-2.2564,-2.2629,-2.2638,-2.2698,-2.2739,-2.2794,-2.2822,-2.2833,-2.2876,-2.2875,-2.2908,-2.292,-2.2974,-2.3001,-2.298,-2.307,-2.3061,-2.3067,-2.305,-2.3054,-2.3057,-2.3049,-2.2985,0,0,0,0,0,-2.2568,-2.2611,-2.2665,-2.2712,-2.2733,-2.2774,-2.28,-2.2819,-2.2862,-2.2879,-2.2915,-2.2956,-2.3001,-2.3029,-2.3073,-2.313,-2.3142,-2.3154,-2.3156,-2.3158,-2.3162,-2.3195,-2.32,-2.3143,-2.3143,-2.3143,0,0,-2.2575,-2.2615,-2.264,-2.271,-2.2744,-2.2787,-2.2788,-2.2834,-2.2866,-2.2886,-2.2942,-2.297,-2.3018,-2.3075,-2.3102,-2.3099,-2.3181,-2.3162,-2.3163,-2.3166,-2.3198,-2.3204,-2.3209,-2.3145,-2.3144,-2.3144,0,0,-2.2609,-2.2645,-2.2688,-2.2722,-2.2774,-2.2801,-2.2812,-2.2866,-2.2886,-2.2943,-2.2959,-2.2997,-2.3073,-2.3107,-2.3134,-2.3182,-2.3192,-2.3196,-2.3209,-2.3241,-2.3245,-2.3249,-2.3266,-2.3272,-2.32,-2.32,-2.32,0,-2.2611,-2.2677,-2.2708,-2.2754,-2.2784,-2.2805,-2.2849,-2.2881,-2.2944,-2.2964,-2.296,-2.3056,-2.3089,-2.3155,-2.3167,-2.3188,-2.3201,-2.3189,-2.3242,-2.3247,-2.3251,-2.3267,-2.3274,-2.32,-2.32,-2.32,-2.32,0,-2.2677,-2.2723,-2.2751,-2.2813,-2.2846,-2.289,-2.2928,-2.2958,-2.2974,-2.3001,-2.3058,-2.31,-2.3153,-2.317,-2.3185,-2.3238,-2.3234,-2.3236,-2.3227,-2.3256,-2.3272,-2.3278,-2.32,-2.32,-2.32,-2.32,0,0,-2.2702,-2.2781,-2.2791,-2.2819,-2.2878,-2.2914,-2.2959,-2.3012,-2.3037,-2.308,-2.3118,-2.3182,-2.3184,-2.3215,-2.3235,-2.3262,-2.3298,-2.3261,-2.3262,-2.3266,-2.3358,-2.3355,-2.3362,-2.3305,-2.3306,-2.3308,-2.3353,0,-2.2743,-2.2825,-2.2855,-2.2923,-2.2965,-2.2987,-2.3027,-2.3067,-2.3094,-2.3134,-2.3164,-2.3209,-2.3208,-2.3227,-2.3255,-2.3287,-2.3317,-2.3285,-2.334,-2.3342,-2.3326,-2.3371,-2.3368,-2.3409,-2.336,-2.3361,-2.3362,0,-2.2802,-2.2847,-2.2919,-2.2973,-2.2992,-2.3027,-2.3078,-2.3116,-2.3162,-2.318,-2.3215,-2.3233,-2.3281,-2.327,-2.3336,-2.3314,-2.3339,-2.3358,-2.336,-2.3366,-2.3353,-2.3376,-2.3423,-2.3429,-2.3372,-2.3371,-2.337,0,-2.2812,-2.2891,-2.2944,-2.2967,-2.3032,-2.3056,-2.3084,-2.313,-2.316,-2.3204,-2.3223,-2.3272,-2.3299,-2.3336,-2.3367,-2.3356,-2.343,-2.3422,-2.3445,-2.3444,-2.3459,-2.3457,-2.3509,-2.3476,-2.3476,-2.3476,-2.3476,0,-2.2855,-2.2898,-2.295,-2.2982,-2.3031,-2.3065,-2.3112,-2.3141,-2.3182,-2.322,-2.3242,-2.3277,-2.3316,-2.3357,-2.3381,-2.3432,-2.3444,-2.3459,-2.3465,-2.3457,-2.3455,-2.3472,-2.347,-2.3478,-2.3477,-2.3477,-2.3477,0,-2.2874,-2.2911,-2.297,-2.3027,-2.3043,-2.3076,-2.3125,-2.3157,-2.3186,-2.3234,-2.3247,-2.3292,-2.334,-2.3375,-2.3438,-2.3454,-2.3509,-2.3515,-2.3493,-2.3496,-2.3517,-2.3514,-2.3582,-2.3592,-2.3553,-2.3553,-2.3553,0,-2.2899,-2.2932,-2.2993,-2.3021,-2.3049,-2.3093,-2.3124,-2.3159,-2.319,-2.3246,-2.3271,-2.3322,-2.3364,-2.3441,-2.3478,-2.3526,-2.3533,-2.3554,-2.354,-2.3531,-2.3533,-2.353,-2.3533,-2.3555,-2.3555,-2.3555,-2.3556,0,-2.2938,-2.2954,-2.2998,-2.3049,-2.3085,-2.3126,-2.3167,-2.3188,-2.3231,-2.3264,-2.3315,-2.3348,-2.3412,-2.3462,-2.3514,-2.3542,-2.3556,-2.356,-2.3568,-2.3559,-2.3545,-2.3552,-2.3498,-2.3558,-2.3557,-2.3557,-2.3557,-2.3557,-2.296,-2.2991,-2.3039,-2.3087,-2.3122,-2.316,-2.3194,-2.3227,-2.327,-2.3325,-2.3344,-2.3396,-2.3442,-2.3513,-2.3542,-2.3583,-2.3582,-2.3593,-2.3596,-2.3598,-2.3597,-2.3539,-2.3593,-2.3593,-2.3593,-2.3593,-2.3593,0,-2.3,-2.3032,-2.3076,-2.3134,-2.3171,-2.3182,-2.3229,-2.3259,-2.3305,-2.3347,-2.3389,-2.3447,-2.3495,-2.3537,-2.3587,-2.3612,-2.362,-2.3624,-2.3622,-2.3628,-2.3596,-2.3584,-2.3617,-2.3617,-2.3617,-2.3617,-2.3617,-2.3617,-2.3025,-2.3078,-2.31,-2.3171,-2.3202,-2.3254,-2.328,-2.3315,-2.3349,-2.3413,-2.3454,-2.3481,-2.3523,-2.3577,-2.3621,-2.3633,-2.365,-2.3652,-2.3665,-2.3633,-2.363,-2.3628,-2.3616,-2.3656,-2.3656,-2.3694,-2.3694,-2.3694]},{"header":{"parameterUnit":"m.s-1","parameterCategory":1,"la1":30.2991,"la2":30.254,"lo1":-89.0895,"lo2":-89.0444,"dy":0.0017,"dx":0.0017,"nx":28,"ny":28,"refTime":"2025-08-03T21:00:00:Z","depth":0,"parameterNumber":3,"parameterNumberName":"V-component_of_WINDS"},"data":[0,0,0,0,0,0,0,0,0,0,0,0,0,0,0,0,0,0,0,0,0,0,0,0,0,0,0,0,0,0,0,0,0,0,0,0,0,0,0,0,0,0,0,0,0,0,0,0,0,0,0,0,0,0,0,0,0,0,1.6619,1.6619,0,1.6613,1.6613,1.6613,1.6543,1.6541,1.6539,1.6537,1.6532,1.6533,1.6535,0,0,0,0,0,0,0,0,0,0,0,0,0,1.6569,1.657,1.6619,1.6619,1.6619,1.6613,1.6613,1.6613,1.6543,1.6541,1.6539,1.6537,1.6531,1.6533,1.6535,0,0,0,0,0,0,0,0,0,0,0,0,0,1.658,1.6571,1.6619,1.6583,1.658,1.6613,1.6613,1.6613,1.6543,1.6541,1.6538,1.6536,1.653,1.6533,1.6535,1.6602,0,0,1.6542,1.6543,0,0,0,0,0,0,0,0,1.6579,1.6582,1.6589,1.6586,1.6582,1.6576,1.6593,1.6609,1.6544,1.6557,1.6537,1.6534,1.6548,1.6549,1.6554,1.6602,1.6601,1.6542,1.6543,1.6544,1.6545,0,0,0,0,0,0,0,1.6579,1.6582,1.6617,1.6589,1.6585,1.6567,1.6566,1.6596,1.6568,1.6556,1.6551,1.6551,1.6546,1.6552,1.6553,1.6601,1.6542,1.6544,1.6545,1.6546,1.6701,1.6703,0,0,0,0,0,0,1.6583,1.6581,1.6617,1.6616,1.6574,1.657,1.6569,1.6581,1.6567,1.6563,1.6553,1.6548,1.6549,1.6551,1.6553,1.6628,1.6544,1.6546,1.6548,1.6698,1.6701,1.6704,0,0,0,0,0,0,1.6582,1.6587,1.6617,1.6598,1.66,1.6574,1.6588,1.6582,1.6587,1.6565,1.656,1.6564,1.6547,1.6549,1.6589,1.6627,1.6547,1.6549,1.6695,1.6699,1.6703,1.678,0,0,0,0,0,0,1.6581,1.6587,1.6612,1.6599,1.6601,1.6655,1.659,1.6584,1.6591,1.6584,1.6574,1.657,1.6545,1.6586,1.6592,1.6628,1.6551,1.6691,1.6697,1.6702,1.6774,1.6787,1.6797,0,0,0,0,0,1.6579,1.6635,1.6614,1.6619,1.6633,1.6657,1.6658,1.6629,1.6595,1.6619,1.6605,1.657,1.6622,1.6591,1.6596,1.6634,1.6689,1.6695,1.6701,1.6769,1.6784,1.6797,0,0,0,0,0,0,1.6655,1.6633,1.6609,1.6662,1.6662,1.6645,1.6676,1.6646,1.6656,1.6648,1.6611,1.661,1.6655,1.6649,1.6615,1.6697,1.6649,1.6657,1.6699,1.6713,1.6724,1.6724,1.6553,0,0,0,0,0,1.6677,1.6699,1.6679,1.6727,1.6728,1.6702,1.6712,1.6689,1.6687,1.6687,1.6675,1.6675,1.669,1.6702,1.6716,1.6774,1.6769,1.6802,1.6814,1.6823,1.6829,1.6857,1.6871,1.6725,1.6725,1.6725,0,0,1.6725,1.6715,1.6731,1.6742,1.6739,1.6761,1.6703,1.6729,1.6745,1.6691,1.6727,1.6719,1.6716,1.6764,1.6785,1.6761,1.6869,1.6831,1.6839,1.684,1.6865,1.6879,1.6891,1.6729,1.6728,1.6728,0,0,1.6821,1.6818,1.6856,1.6854,1.685,1.6832,1.6841,1.6829,1.6821,1.6857,1.6815,1.6834,1.6863,1.6861,1.6865,1.696,1.6927,1.6965,1.7024,1.7052,1.7063,1.7073,1.7105,1.7117,1.6972,1.6972,1.6972,0,1.6881,1.6912,1.688,1.6909,1.6914,1.6865,1.6903,1.6903,1.6904,1.6908,1.6881,1.6914,1.6909,1.6955,1.6978,1.6984,1.6992,1.6965,1.7064,1.7074,1.7083,1.7112,1.7124,1.6977,1.6976,1.6976,1.6975,0,1.6984,1.7007,1.7039,1.7039,1.7048,1.7082,1.7054,1.7067,1.7043,1.7028,1.7064,1.7056,1.7066,1.7075,1.7053,1.7118,1.7103,1.7071,1.7021,1.7102,1.7128,1.714,1.6983,1.6982,1.698,1.6979,0,0,1.7128,1.7109,1.7121,1.712,1.7111,1.7128,1.7159,1.7168,1.7178,1.7181,1.7204,1.7229,1.7199,1.7202,1.7179,1.7204,1.7276,1.7168,1.7167,1.7186,1.7345,1.7367,1.7381,1.7255,1.7258,1.7259,1.7344,0,1.7219,1.727,1.7241,1.7295,1.7314,1.7268,1.7294,1.7292,1.7278,1.7292,1.7277,1.7294,1.7254,1.7256,1.7278,1.7263,1.7307,1.7257,1.7276,1.7277,1.7275,1.7396,1.742,1.75,1.7355,1.7357,1.7358,0,1.7332,1.7337,1.7394,1.7379,1.7386,1.741,1.7415,1.743,1.7425,1.7413,1.7417,1.7388,1.7416,1.7369,1.7406,1.7372,1.7378,1.7372,1.7374,1.7373,1.7321,1.7395,1.7526,1.7537,1.7375,1.7373,1.7372,0,1.7428,1.745,1.7485,1.7486,1.7471,1.7488,1.7483,1.7475,1.7482,1.7487,1.749,1.7499,1.7503,1.751,1.7483,1.7451,1.7523,1.7474,1.7513,1.7513,1.7528,1.7527,1.7659,1.7536,1.7536,1.7536,1.7536,0,1.7531,1.7567,1.7528,1.755,1.7587,1.7554,1.7592,1.7582,1.7575,1.7594,1.7555,1.7573,1.7538,1.7552,1.7532,1.7564,1.7567,1.7557,1.7551,1.7559,1.756,1.7561,1.7554,1.7539,1.7538,1.7538,1.7537,0,1.7644,1.762,1.7655,1.7637,1.7633,1.7662,1.7646,1.7665,1.7649,1.7672,1.7676,1.765,1.7665,1.7639,1.7651,1.7637,1.7682,1.7668,1.7683,1.7678,1.7717,1.7713,1.7852,1.7868,1.7738,1.7739,1.774,0,1.7711,1.7737,1.7721,1.773,1.7726,1.7742,1.7748,1.7716,1.7723,1.7719,1.7738,1.7749,1.7756,1.7782,1.7764,1.7773,1.7757,1.7806,1.7758,1.7765,1.7755,1.7753,1.7754,1.7815,1.7816,1.7818,1.7819,0,1.7831,1.7817,1.7827,1.7832,1.784,1.7843,1.7843,1.7853,1.7818,1.7829,1.7843,1.7848,1.786,1.7871,1.7875,1.7868,1.7837,1.7834,1.7843,1.785,1.7857,1.7851,1.7707,1.783,1.7829,1.7828,1.7828,1.7827,1.7921,1.794,1.7931,1.7943,1.794,1.794,1.7956,1.7941,1.7952,1.7958,1.7939,1.7957,1.795,1.7951,1.7949,1.7962,1.794,1.7954,1.7957,1.796,1.7965,1.7857,1.7963,1.7962,1.7962,1.7962,1.7962,0,1.8036,1.8028,1.8039,1.8039,1.8048,1.8018,1.8016,1.8026,1.8042,1.8038,1.8045,1.806,1.807,1.8053,1.806,1.8074,1.806,1.8077,1.8074,1.8073,1.7985,1.7976,1.8088,1.8088,1.8088,1.8088,1.8088,1.8088,1.8097,1.8128,1.8113,1.8141,1.8132,1.8149,1.815,1.815,1.8146,1.8164,1.8172,1.8161,1.8151,1.8157,1.8165,1.8159,1.8163,1.8184,1.8174,1.8092,1.8079,1.8067,1.8058,1.8186,1.8186,1.8259,1.826,1.8261]}]]